When you browse on this site, cookies collect data to enhance your experience and personalize the content and advertising you see.
Visit our Privacy Policy to learn more. By continuing to use the site, you agree to this use of cookies and data.
  • In Portugal
  • List of Countries
  • For 7 days
  • Water Temperature
  • Satellite Maps
  • Weather Map
  • Weather Widgets
  • user-avatar
    Login

    Hourly Weather Brisbane

    Today, 20 July, Saturday

    Time Temperature Precipitation Wind Pressure Humidity
    00:00 +13°C° 0 mm 1 mps 764 mmHg 69%
    01:00 +12°C° 0 mm 1 mps 764 mmHg 69%
    02:00 +12°C° 0 mm 1 mps 765 mmHg 69%
    03:00 +11°C° 0 mm 1 mps 765 mmHg 68%
    04:00 +10°C° 0 mm 2 mps 765 mmHg 64%
    05:00 +10°C° 0 mm 2 mps 765 mmHg 64%
    06:00 +9°C° 0 mm 2 mps 765 mmHg 64%
    07:00 +10°C° 0 mm 1 mps 765 mmHg 64%
    08:00 +13°C° 0 mm 1 mps 766 mmHg 58%
    09:00 +16°C° 0 mm 1 mps 766 mmHg 52%
    10:00 +19°C° 0 mm 1 mps 766 mmHg 45%
    11:00 +21°C° 0 mm 1 mps 765 mmHg 44%
    12:00 +22°C° 0 mm 1 mps 765 mmHg 43%
    13:00 +23°C° 0 mm 1 mps 764 mmHg 42%
    14:00 +21°C° 0 mm 2 mps 764 mmHg 46%
    15:00 +21°C° 0 mm 2 mps 764 mmHg 49%
    16:00 +20°C° 0 mm 2 mps 764 mmHg 53%
    17:00 +19°C° 0 mm 2 mps 764 mmHg 60%
    18:00 +17°C° 0 mm 2 mps 764 mmHg 67%
    19:00 +16°C° 0 mm 1 mps 765 mmHg 75%
    20:00 +15°C° 0 mm 1 mps 765 mmHg 77%
    21:00 +15°C° 0 mm 1 mps 765 mmHg 79%
    22:00 +13°C° 0 mm 0 mps 765 mmHg 80%
    23:00 +14°C° 0 mm 1 mps 765 mmHg 82%

    Tomorrow, 21 July, Sunday

    Time Temperature Precipitation Wind Pressure Humidity
    00:00 +13°C° 0 mm 1 mps 765 mmHg 83%
    01:00 +13°C° 0 mm 1 mps 765 mmHg 85%
    02:00 +12°C° 0 mm 1 mps 765 mmHg 85%
    03:00 +12°C° 0 mm 1 mps 765 mmHg 86%
    04:00 +12°C° 0 mm 1 mps 765 mmHg 87%
    05:00 +12°C° 0 mm 1 mps 765 mmHg 87%
    06:00 +12°C° 0 mm 1 mps 765 mmHg 87%
    07:00 +11°C° 0 mm 1 mps 765 mmHg 87%
    08:00 +14°C° 0 mm 1 mps 765 mmHg 77%
    09:00 +18°C° 0 mm 1 mps 765 mmHg 66%
    10:00 +20°C° 0 mm 1 mps 765 mmHg 56%
    11:00 +21°C° 0 mm 1 mps 764 mmHg 51%
    12:00 +22°C° 0 mm 1 mps 763 mmHg 46%
    13:00 +23°C° 0 mm 2 mps 762 mmHg 41%
    14:00 +21°C° 0 mm 2 mps 762 mmHg 44%
    15:00 +21°C° 0 mm 2 mps 762 mmHg 47%
    16:00 +20°C° 0 mm 3 mps 762 mmHg 50%
    17:00 +19°C° 0 mm 2 mps 762 mmHg 57%
    18:00 +17°C° 0 mm 2 mps 762 mmHg 64%
    19:00 +16°C° 0 mm 2 mps 763 mmHg 70%
    20:00 +15°C° 0 mm 2 mps 763 mmHg 73%
    21:00 +15°C° 0 mm 2 mps 763 mmHg 76%
    22:00 +14°C° 0 mm 2 mps 764 mmHg 79%
    23:00 +14°C° 0 mm 2 mps 763 mmHg 80%

    Day after tomorrow, 22 July, Monday

    Time Temperature Precipitation Wind Pressure Humidity
    00:00 +13°C° 0 mm 1 mps 763 mmHg 81%
    01:00 +13°C° 0 mm 1 mps 763 mmHg 82%
    02:00 +13°C° 0 mm 1 mps 763 mmHg 83%
    03:00 +12°C° 0 mm 1 mps 763 mmHg 83%
    04:00 +12°C° 0 mm 1 mps 763 mmHg 84%
    05:00 +12°C° 0 mm 1 mps 763 mmHg 85%
    06:00 +12°C° 0 mm 1 mps 763 mmHg 85%
    07:00 +12°C° 0 mm 1 mps 764 mmHg 85%
    08:00 +14°C° 0 mm 1 mps 764 mmHg 75%
    09:00 +18°C° 0 mm 1 mps 764 mmHg 66%
    10:00 +20°C° 0 mm 1 mps 764 mmHg 56%
    11:00 +22°C° 0 mm 1 mps 763 mmHg 51%
    12:00 +23°C° 0 mm 1 mps 762 mmHg 46%
    13:00 +24°C° 0 mm 1 mps 761 mmHg 41%
    14:00 +24°C° 0 mm 2 mps 761 mmHg 45%
    15:00 +23°C° 0 mm 2 mps 761 mmHg 48%
    16:00 +23°C° 0 mm 2 mps 761 mmHg 52%
    17:00 +20°C° 0 mm 3 mps 762 mmHg 60%
    18:00 +19°C° 0 mm 3 mps 762 mmHg 68%
    19:00 +17°C° 0 mm 3 mps 762 mmHg 77%
    20:00 +17°C° 0 mm 3 mps 763 mmHg 78%
    21:00 +16°C° 0 mm 2 mps 763 mmHg 79%
    22:00 +16°C° 0 mm 2 mps 763 mmHg 80%
    23:00 +16°C° 0 mm 2 mps 763 mmHg 81%

    23 July, Tuesday

    Time Temperature Precipitation Wind Pressure Humidity
    00:00 +16°C° 0 mm 1 mps 763 mmHg 81%
    01:00 +16°C° 0 mm 1 mps 762 mmHg 81%
    02:00 +15°C° 0 mm 1 mps 763 mmHg 82%
    03:00 +15°C° 0 mm 1 mps 763 mmHg 84%
    04:00 +15°C° 0 mm 1 mps 763 mmHg 85%
    05:00 +14°C° 0 mm 1 mps 763 mmHg 86%
    06:00 +14°C° 0 mm 1 mps 764 mmHg 86%
    07:00 +13°C° 0 mm 2 mps 764 mmHg 87%
    08:00 +16°C° 0 mm 2 mps 764 mmHg 77%
    09:00 +18°C° 0 mm 2 mps 764 mmHg 66%
    10:00 +21°C° 0 mm 2 mps 764 mmHg 56%
    11:00 +23°C° 0 mm 2 mps 764 mmHg 49%
    12:00 +24°C° 0 mm 2 mps 763 mmHg 43%
    13:00 +26°C° 0 mm 2 mps 762 mmHg 37%
    14:00 +26°C° 0 mm 2 mps 762 mmHg 39%
    15:00 +25°C° 0 mm 2 mps 762 mmHg 40%
    16:00 +25°C° 0 mm 2 mps 762 mmHg 42%
    17:00 +23°C° 0 mm 2 mps 762 mmHg 47%
    18:00 +20°C° 0 mm 2 mps 763 mmHg 53%
    19:00 +18°C° 0 mm 2 mps 763 mmHg 59%
    20:00 +18°C° 0 mm 2 mps 763 mmHg 61%
    21:00 +17°C° 0 mm 2 mps 764 mmHg 64%
    22:00 +16°C° 0 mm 1 mps 764 mmHg 66%
    23:00 +16°C° 0 mm 1 mps 764 mmHg 66%

    24 July, Wednesday

    Time Temperature Precipitation Wind Pressure Humidity
    00:00 +15°C° 0 mm 1 mps 764 mmHg 67%
    01:00 +15°C° 0 mm 1 mps 764 mmHg 67%
    02:00 +15°C° 0 mm 1 mps 763 mmHg 68%
    03:00 +14°C° 0 mm 1 mps 763 mmHg 69%
    04:00 +14°C° 0 mm 1 mps 763 mmHg 70%
    05:00 +13°C° 0 mm 1 mps 764 mmHg 70%
    06:00 +13°C° 0 mm 1 mps 764 mmHg 71%
    07:00 +13°C° 0 mm 1 mps 764 mmHg 71%
    08:00 +16°C° 0 mm 1 mps 764 mmHg 62%
    09:00 +18°C° 0 mm 2 mps 764 mmHg 53%
    10:00 +21°C° 0 mm 2 mps 764 mmHg 44%
    11:00 +23°C° 0 mm 2 mps 764 mmHg 39%
    12:00 +24°C° 0 mm 3 mps 763 mmHg 33%
    13:00 +26°C° 0 mm 3 mps 762 mmHg 28%
    14:00 +25°C° 0 mm 3 mps 762 mmHg 28%
    15:00 +25°C° 0 mm 3 mps 761 mmHg 29%
    16:00 +25°C° 0 mm 3 mps 761 mmHg 29%
    17:00 +22°C° 0 mm 3 mps 762 mmHg 31%
    18:00 +20°C° 0 mm 3 mps 762 mmHg 33%
    19:00 +18°C° 0 mm 3 mps 762 mmHg 34%
    20:00 +17°C° 0 mm 3 mps 763 mmHg 39%
    21:00 +16°C° 0 mm 3 mps 763 mmHg 43%
    22:00 +14°C° 0 mm 3 mps 764 mmHg 48%
    23:00 +13°C° 0 mm 3 mps 763 mmHg 52%

    25 July, Thursday

    Time Temperature Precipitation Wind Pressure Humidity
    00:00 +13°C° 0 mm 3 mps 763 mmHg 56%
    01:00 +12°C° 0 mm 3 mps 763 mmHg 59%
    02:00 +13°C° 0 mm 2 mps 763 mmHg 62%
    03:00 +12°C° 0 mm 2 mps 763 mmHg 65%
    04:00 +10°C° 0 mm 2 mps 763 mmHg 68%
    05:00 +10°C° 0 mm 2 mps 764 mmHg 69%
    06:00 +10°C° 0 mm 2 mps 764 mmHg 70%
    07:00 +10°C° 0 mm 2 mps 764 mmHg 71%
    08:00 +13°C° 0 mm 2 mps 764 mmHg 63%
    09:00 +15°C° 0 mm 2 mps 765 mmHg 56%
    10:00 +17°C° 0 mm 2 mps 765 mmHg 49%
    11:00 +19°C° 0 mm 2 mps 764 mmHg 47%
    12:00 +20°C° 0 mm 2 mps 763 mmHg 45%
    13:00 +21°C° 0 mm 2 mps 763 mmHg 44%
    14:00 +21°C° 0 mm 3 mps 763 mmHg 47%
    15:00 +20°C° 0 mm 3 mps 763 mmHg 51%
    16:00 +20°C° 0 mm 3 mps 763 mmHg 54%
    17:00 +18°C° 0 mm 3 mps 763 mmHg 60%
    18:00 +17°C° 0 mm 3 mps 764 mmHg 67%
    19:00 +16°C° 0 mm 3 mps 764 mmHg 73%
    20:00 +14°C° 0 mm 3 mps 764 mmHg 75%
    21:00 +15°C° 0 mm 2 mps 764 mmHg 77%
    22:00 +14°C° 0 mm 2 mps 765 mmHg 79%
    23:00 +14°C° 0 mm 2 mps 764 mmHg 80%
    Show more